TITAN 3C TRANSTAGE DEB, 1722

Orbit data source: Space-Track

TITAN 3C TRANSTAGE DEB, 1722 is space debris in LEO originally from a launch on Fri, 15 Oct 1965 UTC launched from the Air Force Eastern Test Range (AFETR). Debris objects in space refer to the collection of defunct objects orbiting the Earth. Examples of debris include non-operational satellites, rocket bodies, and fragments generated from explosions, collisions, or faulty payload assembly.

Loading next visibility...
Identifier
1722, 1965-082CD
Orbit
LEO
Country
Flag of USUS
Related business
Manufacturer
Unknown
Mission
Spacecraft
Bus & Motor
Unknown
Mass
Unknown
Launch date (UTC)
1965-10-15 (60 years ago)
Launch vehicle
Unknown
Launch site
Air Force Eastern Test Range (AFETR)
Object type
Payload
Rocket body
Debris
Shape & HBR
Unknown shape, 0.2 m
Radar Cross Section
Small (<0.1 m²)

Expand to show TLE details & history
Last TLE update: 5 hours ago

TLE from 5 hours ago
0 TITAN 3C TRANSTAGE DEB
1  1722U 65082CD  26034.11092886  .00001011  00000-0  18329-3 0  9992
2  1722  32.4195  27.0998 0027096  26.1706 334.0309 14.63871639179343
Epoch: 2026-02-03T02:39Z
TLE epoch observation values (Epoch: 2026-02-03T02:39:44.253Z)
Latitude
-0°
Longitude
-146.13115°
Altitude
662.196 km
Speed
7.538 km/s
True Right ascension
01h 48m 23s
True Declination
0° 00' 00"
Sunlit
Object was in daylight at epoch
Visualization orbit readout
Latitude
Unknown
Longitude
Unknown
Altitude
Unknown
Speed
Unknown
Apparent Right ascension
Unknown
Apparent Declination
Unknown
Sunlit
N/A
Visualization observer readout
Local Sidereal Time
09:41:23
Azimuth
Unknown
Elevation
Unknown
Doppler factor
Unknown
Orbital elements
Apogee altitude
703.392 km
Perigee altitude
665.119 km
Semi-major axis
7,062.392 km
Eccentricity
0.00271
Inclination
32.4195°
RAAN
27.0998°
Arg. of periapsis
26.1706°
True anomaly
333.89452°
Mean anomaly
334.0309°
Eccentric anomaly
333.96275°
Mean motion
3.65692 °/min
Orbital period
98.44 mins
BSTAR
0.00018329

Documentation

Showing up to 5 results
|